Weather History for Fort Lewis, WA

Change the Weather History Date:

Tuesday, January 3, 2012

  Actual Average Record
Temperature  
Mean Temperature 46 °F -  
Max Temperature 54 °F 44 °F 55 °F (2003)
Min Temperature 38 °F 33 °F 18 °F (2011)
Degree Days  
Heating Degree Days 19    
Moisture  
Dew Point 42 °F    
Average Humidity 92    
Maximum Humidity 100    
Minimum Humidity 68    
Precipitation  
Precipitation 0.00 in - - ()
Sea Level Pressure  
Sea Level Pressure 30.24 in    
Wind  
Wind Speed 3 mph (SE)    
Max Wind Speed 10 mph    
Max Gust Speed -    
Visibility 8 miles    
Events      
Averages and records for this station are not official NWS values.
T = Trace of Precipitation, MM = Missing Value Source: NWS Daily Summary

Daily Weather History Graph

Daily Weather History Graph

Search for Another Location

Airport:

Trip Planner

Search our weather history database for the weather conditions in past years. The results will help you decide how hot, cold, wet, or windy it might be!

Date:

Astronomy

Jan. 03, 2012 Rise Set
Actual Time 7:56 AM PST 4:33 PM PST
Civil Twilight 7:21 AM PST 5:08 PM PST
Nautical Twilight 6:42 AM PST 5:47 PM PST
Astronomical Twilight 6:05 AM PST 6:24 PM PST
Moon 12:29 PM PST (1/3) 2:45 AM PST (1/3)
Length of Visible Light 9h 47m
Length of Day
8h 36m
Waxing Gibbous, 73% of the Moon is Illuminated
Jan 3
Waxing Gibbous
Jan 8
Full
Jan 16
Last Quarter
Jan 22
New
Jan 30
First Quarter

Hourly Weather History & Observations

Time (PST) Temp. Windchill Dew Point Humidity Pressure Visibility Wind Dir Wind Speed Gust Speed Precip Events Conditions
12:55 AM 43.0 °F - 41.5 °F 95% 30.28 in 10.0 mi Calm Calm - N/A   Mostly Cloudy
1:55 AM 40.6 °F 38.6 °F 39.9 °F 97% 30.29 in 10.0 mi SE 3.5 mph - N/A   Mostly Cloudy
2:16 AM 39.2 °F 35.9 °F 37.4 °F 93% 30.30 in 1.5 mi SE 4.6 mph - N/A   Partly Cloudy
2:23 AM 39.2 °F 35.9 °F 39.2 °F 100% 30.29 in 2.0 mi SE 4.6 mph - N/A   Scattered Clouds
2:32 AM 39.2 °F 35.9 °F 39.2 °F 100% 30.29 in 3.0 mi SE 4.6 mph - N/A   Scattered Clouds
2:55 AM 40.3 °F 38.2 °F 39.7 °F 98% 30.28 in 10.0 mi ESE 3.5 mph - N/A   Mostly Cloudy
3:55 AM 39.7 °F 37.6 °F 39.4 °F 99% 30.29 in 10.0 mi ESE 3.5 mph - N/A   Mostly Cloudy
4:55 AM 39.0 °F - 38.7 °F 99% 30.27 in 10.0 mi Calm Calm - N/A   Partly Cloudy
5:55 AM 38.5 °F - 38.1 °F 99% 30.25 in 2.0 mi Calm Calm - N/A   Mostly Cloudy
6:00 AM 39.2 °F 35.9 °F 39.2 °F 100% 30.25 in 3.0 mi East 4.6 mph - N/A   Scattered Clouds
6:55 AM 38.7 °F - 38.5 °F 99% 30.26 in 10.0 mi Calm Calm - N/A   Overcast
7:55 AM 40.3 °F - 40.1 °F 99% 30.28 in 10.0 mi Calm Calm - N/A   Overcast
8:55 AM 40.6 °F - 40.5 °F 99% 30.29 in 10.0 mi Calm Calm - N/A   Overcast
9:55 AM 42.8 °F 41.1 °F 42.4 °F 99% 30.31 in 10.0 mi SE 3.5 mph - N/A   Overcast
10:55 AM 50.7 °F - 45.5 °F 82% 30.30 in 10.0 mi South 8.1 mph - N/A   Overcast
11:55 AM 52.9 °F - 45.3 °F 75% 30.27 in 10.0 mi SSE 10.4 mph - N/A   Overcast
12:55 PM 54.9 °F - 44.4 °F 68% 30.24 in 10.0 mi SSE 9.2 mph - N/A   Scattered Clouds
1:55 PM 54.5 °F - 44.1 °F 68% 30.23 in 10.0 mi Variable 4.6 mph - N/A   Mostly Cloudy
2:55 PM 54.3 °F - 44.8 °F 70% 30.22 in 10.0 mi South 3.5 mph - N/A   Mostly Cloudy
3:55 PM 51.3 °F - 46.6 °F 84% 30.22 in 10.0 mi NW 3.5 mph - N/A   Partly Cloudy
4:55 PM 52.3 °F - 44.2 °F 74% 30.22 in 10.0 mi SSE 3.5 mph - N/A   Mostly Cloudy
5:55 PM 48.7 °F - 46.8 °F 93% 30.22 in 10.0 mi Calm Calm - N/A   Mostly Cloudy
6:55 PM 49.1 °F - 45.9 °F 89% 30.25 in 10.0 mi Calm Calm - N/A   Mostly Cloudy
7:55 PM 47.1 °F - 45.7 °F 95% 30.23 in 10.0 mi NE 3.5 mph - N/A   Overcast
8:55 PM 46.6 °F - 45.1 °F 95% 30.20 in 10.0 mi ENE 3.5 mph - N/A   Overcast
9:55 PM 45.5 °F - 43.9 °F 94% 30.19 in 10.0 mi Calm Calm - N/A   Mostly Cloudy
10:55 PM 42.6 °F - 41.9 °F 97% 30.19 in 10.0 mi Calm Calm - N/A   Partly Cloudy
11:19 PM 41.0 °F - 41.0 °F 100% 30.17 in 1.5 mi Calm Calm - N/A   Clear
11:48 PM 41.0 °F - 41.0 °F 100% 30.18 in 1.2 mi Calm Calm - N/A   Clear
11:55 PM 40.8 °F - 40.3 °F 98% 30.17 in 1.8 mi Calm Calm - N/A   Clear
11:56 PM 41.0 °F - 41.0 °F 100% 30.18 in 2.0 mi Calm Calm - N/A   Clear
11:57 PM 41.0 °F - 41.0 °F 100% 30.18 in 2.0 mi Calm Calm - N/A   Clear